This is the latest recevied weather packets stored in our database for station/object KB3HHA-13. If no packets are shown the sender has not sent any weather packets the latest 10 day(s).
| Time | Temp. | Humidity | Pressure | Rain* | Wind** | Luminosity | Snow |
|---|---|---|---|---|---|---|---|
| 1778078220 | 16.11° C | 94% | 1009.7 hPa | 1.27 mm | - | - | - |
| 1778077921 | 16.11° C | 94% | 1009.7 hPa | 1.02 mm | - | - | - |
| 1778077620 | 16.11° C | 94% | 1009.6 hPa | 0.51 mm | - | - | - |
| 1778077322 | 16.11° C | 94% | 1009.6 hPa | 0.25 mm | - | - | - |
| 1778077020 | 16.11° C | 94% | 1009.5 hPa | 0.25 mm | - | - | - |
| 1778076721 | 16.11° C | 94% | 1009.5 hPa | 0.25 mm | - | - | - |
| 1778076422 | 16.11° C | 94% | 1009.5 hPa | 0 mm | - | - | - |
| 1778076121 | 16.11° C | 94% | 1009.2 hPa | 0 mm | - | - | - |
| 1778075822 | 16.11° C | 94% | 1009.4 hPa | 1.78 mm | - | - | - |
| 1778075520 | 16.11° C | 93% | 1009.3 hPa | 1.78 mm | - | - | - |
| 1778075222 | 16.11° C | 93% | 1009.3 hPa | 1.52 mm | - | - | - |
| 1778074920 | 16.11° C | 93% | 1009.5 hPa | 1.52 mm | - | - | - |
| 1778074621 | 16.11° C | 93% | 1009.6 hPa | 1.27 mm | - | - | - |
| 1778074322 | 16.11° C | 93% | 1009.6 hPa | 1.02 mm | - | - | - |
| 1778074022 | 16.11° C | 93% | 1009.5 hPa | 1.02 mm | - | - | - |
| 1778073720 | 16.11° C | 93% | 1009.6 hPa | 0.76 mm | - | - | - |
| 1778073421 | 16.11° C | 93% | 1009.8 hPa | 0.51 mm | - | - | - |
| 1778073122 | 16.11° C | 93% | 1010 hPa | 0.25 mm | - | - | - |
| 1778072822 | 16.11° C | 93% | 1010.1 hPa | 0.25 mm | - | - | - |
| 1778072520 | 16.11° C | 92% | 1009.9 hPa | 0 mm | - | - | - |
| 1778072221 | 16.11° C | 92% | 1009.8 hPa | 1.52 mm | - | - | - |
| 1778071922 | 16.11° C | 92% | 1009.7 hPa | 1.27 mm | - | - | - |
| 1778071621 | 16.11° C | 92% | 1009.5 hPa | 1.27 mm | - | - | - |
| 1778071320 | 16.11° C | 91% | 1009.4 hPa | 1.27 mm | - | - | - |
| 1778071022 | 16.11° C | 91% | 1009.4 hPa | 1.02 mm | - | - | - |
* Rain latest hour (hover to see other rain measurements)
** Current wind speed in m/s (hover to see current wind gust speed)